Regional Weather Roundup
Issued by NWS

Home | Current Version | Previous Version | Text Only | Print | Product List | Glossary Off
Versions: 1 2 3 4 5 6 7 8 9 10 11 12 13 14 15 16 17 18 19 20 21 22 23 24 25 26 27 28 29 30 31 32 33 34 35 36 37 38 39 40 41 42 43 44 45 46 47 48 49 50

000
ASUS43 KIND 301109
RWRIN

WEATHER ROUNDUP FOR INDIANA
NATIONAL WEATHER SERVICE INDIANAPOLIS IN
700 AM EDT FRI SEP 30 2016

NOTE: "FAIR" INDICATES FEW OR NO CLOUDS BELOW 12,000 FEET WITH NO
SIGNIFICANT WEATHER AND/OR OBSTRUCTIONS TO VISIBILITY.

* - STATION DOES NOT REPORT WEATHER SUCH AS PRECIPITATION OR FOG.

+ - STATION NOT QUALITY CONTROLLED BY THE NATIONAL WEATHER SERVICE.
    USE DATA WITH CAUTION...ESPECIALLY DEWPOINT AND RELATIVE
    HUMIDITY OBSERVATIONS.

INZ001>003-010>013-019-020-301200-
NORTHWEST INDIANA

CITY           SKY/WX    TMP DP  RH WIND       PRES   REMARKS
GARY /AIRPORT/ CLOUDY    63  61  94 NE14G28   30.14R
KNOX *+        CLOUDY    59  46  63 NE10      30.09S
LA PORTE +     CLOUDY   N/A N/A N/A NE10      30.12S
MICHIGAN CITY+ CLOUDY    59  59 100 CALM      30.13R
MONTICELLO +   CLOUDY    59  55  87 NE6       30.06R
RENSSELAER +   CLOUDY    59  59 100 N8        30.08F
VALPARAISO     CLOUDY    59  58  96 N7        30.11F

$$

LMZ046-743>745-301200-
SOUTHERN LAKE MICHIGAN

STATION/POSITION TIME  TEMP    WIND        PRES    WAVE
                       AIR SEA DIR/SP/G            HT
                 (UTC) (F)     (DEG/KT/KT) (MB)    (FT)
BURNS HARBOR     1040   62      50/ 18/ 22 1020.3S
MICHIGAN CITY    1040   60      20/ 19/ 21   N/A
5NW MICH CITY    1100   61 64   40/ 16/ 19   N/A     7

$$

INZ004-005-014>016-021>024-301200-
NORTH CENTRAL INDIANA

CITY           SKY/WX    TMP DP  RH WIND       PRES   REMARKS
ELKHART        LGT RAIN  61  57  88 NE7       30.10
GOSHEN         CLOUDY    60  57  89 NE8       30.10S FOG
LOGANSPORT +   CLOUDY    59  59 100 NE5       30.07S
PERU/GRISSOM   CLOUDY    60  60 100 N9        30.03F
ROCHESTER +    CLOUDY    63  63 100 N10G16    30.06F
SOUTH BEND     LGT RAIN  59  58  96 NE9       30.11F
WARSAW +       CLOUDY    59  59 100 NE7       30.07F

$$

INZ006>009-017-018-025>027-301200-
NORTHEAST INDIANA

CITY           SKY/WX    TMP DP  RH WIND       PRES   REMARKS
ANGOLA *+        N/A     59  48  67 NE8       30.09F
AUBURN +       CLOUDY    61  59  94 NE6       30.09R
FORT WAYNE     CLOUDY    60  57  89 NE9       30.05S
HUNTINGTON +   CLOUDY   N/A N/A N/A NE8       30.05S
KENDALLVILLE + CLOUDY    60  60 100 NE8       30.08S

$$

INZ028-029-035-036-043>045-051>053-301200-
WEST CENTRAL INDIANA

CITY           SKY/WX    TMP DP  RH WIND       PRES   REMARKS
CRAWFORDSVL +  CLOUDY    57  57 100 N3        30.06R
GREENCASTLE +  LGT RAIN  59  59 100 NE5       30.06R
LAFAYETTE      CLOUDY    59  59 100 NE9       30.06R
TERRE HAUTE    CLOUDY    59  58  96 N5        30.04R

$$

INZ030>032-037>040-046>048-054>057-064-065-301200-
CENTRAL INDIANA

CITY           SKY/WX    TMP DP  RH WIND       PRES   REMARKS
FISHERS *+     CLOUDY    57  57 100 CALM      30.05S
FRANKFORT +    CLOUDY    62  60  94 NE3       30.07S
GREENWOOD *+   CLOUDY    61  59  94 E3        30.05R
INDIANAPOLIS   CLOUDY    60  58  92 NE8       30.04S
-EAGLE CREEK   CLOUDY    60  58  92 E3        30.04S
KOKOMO *+      CLOUDY    60  58  92 NE6       30.05F
MARION +       CLOUDY    59  57  94 NE9       30.05R
MT COMFORT *+  CLOUDY    57  57 100 CALM      30.05S
SHELBYVILLE    CLOUDY    60  56  86 NE5       30.03S
ZIONSVILLE +   RAIN      58  57  95 CALM      30.06S

$$

INZ033-034-041-042-049-050-058-059-301200-
EAST CENTRAL INDIANA

CITY           SKY/WX    TMP DP  RH WIND       PRES   REMARKS
MUNCIE         CLOUDY    60  58  92 CALM      30.04S FOG

$$

INZ060-061-067>069-081>083-085>088-301200-
SOUTHWEST INDIANA

CITY           SKY/WX    TMP DP  RH WIND       PRES   REMARKS
EVANSVILLE     HVY RAIN  57  54  89 N6        30.03R FOG
HUNTINGBURG *+   N/A     55  54  94 N3        30.02R
WASHINGTON +   CLOUDY   N/A N/A N/A MISG      30.02R

$$

INZ062-063-066-070>080-084-089>092-301200-
SOUTH CENTRAL AND SOUTHEAST INDIANA

CITY           SKY/WX    TMP DP  RH WIND       PRES   REMARKS
BLOOMINGTON    CLOUDY    59  56  89 NE7       30.03R
MADISON *+     CLOUDY    55  54  94 CALM      30.04F
NORTH VERNON + CLOUDY   N/A N/A N/A CALM      30.03F HAZE
SEYMOUR +      CLOUDY    57  57 100 CALM      30.03S

$$





USA.gov is the U.S. government's official web portal to all federal, state and local government web resources and services.